Retour au catalogue

COSMOS 1823 DEB

ActifLEO
NORAD 29355·DEBRIS·🇷🇺 Russia

Lancé Feb 20, 1987 depuis Plesetsk Cosmodrome

Loading…

Prochains Passages (prochaines 24 heures)

TLE

PériméSource: Space-Track

Époque: Sep 6, 2026, 09:31 UTC

1 29355U 87020DW  26249.39660019  .00000098  00000-0  80561-3 0  9998
2 29355  73.6238 260.4014 0026933  14.1408  51.4862 12.45452349599449

Suivez COSMOS 1823 DEB en temps réel avec AllMySat

Download on the App Store